Showing default

DMSP 5D-2 F13 (USA 109), 23533

Orbit data source: Space-Track

DMSP 5D-2 F13 (USA 109), 23533 is a payload satellite owned by USAF SMC (US) in SSO that was launched on Fri, 24 Mar 1995 UTC via an ATLAS E launch vehicle from the Air Force Western Test Range (AFWTR). Payloads include a variety of satellites, spacecraft, and rockets equipped with specific instruments for various scientific and technological missions. These include communications satellites like Starlink; space stations such as the ISS; scientific satellites like the Hubble; Earth observation satellites from companies like Planet Labs, Umbra, and HawkEye 360; GPS; miniature CubeSats for education and research; and military/defense satellites.

Loading next visibility...
DMSP 5D-2 F13 (USA 109) details
Identifier
23533, 1995-015A
Orbit
SSO
Last TLE update21 hours ago
Origin
Flag of USUSAF SMC (US)
ManufacturerLMT/EW
MissionNon-operational Defense Weather
Bus & MotorBLOCK 5D, STAR 37S
Mass1,456 kg wet, 749 kg dry
Launch date (UTC)
1995-03-24 (30 years ago)
Launch vehicle
ATLAS E
Launch site
Air Force Western Test Range (AFWTR)
Object type
Payload
Rocket body
Debris
Shape & HBRCyl + 1 Pan, 5 m
Radar Cross Section4.290 m², Large (>1 m²)

Expand to show TLE details & history

TLE from 21 hours ago
0 DMSP 5D-2 F13 (USA 109)
1 23533U 95015A   25024.88929166  .00000467  00000-0  25555-3 0  9990
2 23533  98.8189  38.4809 0007128 159.3907 265.4519 14.16796504541213
Epoch: 2025-01-24T21:20Z
Definitive object data (Epoch: 2025-01-24T21:20:34.799Z)
Latitude63.45196°
Longitude-64.102°
Altitude847.495 km
Speed7.435 km/s
True Right ascension01h 21m 57s
True Declination63° 18' 57"
Sunlit
Object was in daylight at TLE epoch
Visualization TLE readout
Latitude-23.73997°
Longitude130.86497°
Altitude841.547 km
Speed7.433 km/s
Apparent Right ascension11h 41m 45s
Apparent Declination-42° 52' 38"
Sunlit
Object is in daylight
Visualization observer readout
Local Sidereal Time19:40:54
Azimuth245.616° WSW
Elevation-45.711°
Doppler factor1
Orbital elements
Apogee altitude838.516 km
Perigee altitude828.235 km
Semi-major axis7,211.512 km
Eccentricity0.0007128
Inclination98.8189°
RAAN38.4809°
Arg. of periapsis159.3907°
True anomaly265.37048°
Mean anomaly265.4519°
Eccentric anomaly265.41119°
Mean motion3.54408 °/min
BSTAR0.00025555
Orbital period101.58 mins
Loading maneuver chart data...

DMSP 5D-2 F13 (USA 109) Visibility forecast

Observer location: undefined°, undefined

Span
Click to sort rows by Start time (UTC) header in descending order
Start Az.
Max El. time (UTC)
Max El. Az.
Max El.
End time (UTC)
End Az.
10 mins2025-01-26 00:16:09.206Z146.431° SSE2025-01-26 00:21:09.206Z74.76° E38.781°2025-01-26 00:26:09.206Z356.913° N
5 mins2025-01-26 02:00:09.206Z243.104° WSW2025-01-26 02:02:09.206Z270.696° WNW18.003°2025-01-26 02:05:09.206Z307.133° NW
7 mins2025-01-26 12:38:09.206Z51.842° ENE2025-01-26 12:41:09.206Z92.941° ESE21.454°2025-01-26 12:45:09.206Z143.984° SSE
8 mins2025-01-26 14:18:09.206Z353.334° N2025-01-26 14:22:09.206Z278.631° WNW34.234°2025-01-26 14:26:09.206Z222.942° SW
|